STARLINK-32748, 62524

Orbit data source: Space-Track

STARLINK-32748, 62524 is a payload satellite owned by SpaceX/Seattle (US) in LEO that was launched on Wed, 08 Jan 2025 UTC via an FALCON 9 launch vehicle from the Air Force Eastern Test Range (AFETR). Payload-class satellites include a variety of spacecraft equipped with specific instruments for various scientific and technological missions. These include communications satellites like Starlink; space stations such as the ISS; scientific satellites like the Hubble; Earth observation satellites from companies like Planet Labs, Umbra, and HawkEye 360; GPS; miniature CubeSats for education and research; and military/defense satellites.

Loading next visibility...
Identifier
62524, 2025-004P
Orbit
LEO
Country
Flag of USUS
Related business
Manufacturer
SpaceX/Seattle
Mission
Operational Commercial Communications
Bus & Motor
STARLINK V2M, Unknown motor
Mass
730 kg wet, ~700 kg dry
Launch date (UTC)
2025-01-08 (9 months ago)
Launch vehicle
FALCON 9
Launch site
Air Force Eastern Test Range (AFETR)
Object type
Payload
Rocket body
Debris
Shape & HBR
Box + 2 Pan, 17.7 m
Radar Cross Section
33.884 m², Large (>1 m²)

Expand to show TLE details & history
Last TLE update: 11 hours ago

TLE from 11 hours ago
0 STARLINK-32748
1 62524U 25004P   25287.83197513  .00020692  00000-0  75960-3 0  9990
2 62524  42.9975 323.4263 0001541  74.0013 286.1008 15.27567898 44153
Epoch: 2025-10-14T19:58Z
TLE epoch observation values (Epoch: 2025-10-14T19:58:02.651Z)
Latitude
-0.00003°
Longitude
0.30048°
Altitude
482.567 km
Speed
7.626 km/s
True Right ascension
21h 33m 42s
True Declination
0° 00' 00"
Sunlit
Object was in full shadow at epoch
Visualization orbit readout
Latitude
Unknown
Longitude
Unknown
Altitude
Unknown
Speed
Unknown
Apparent Right ascension
Unknown
Apparent Declination
Unknown
Sunlit
N/A
Visualization observer readout
Local Sidereal Time
01:40:12
Azimuth
Unknown
Elevation
Unknown
Doppler factor
Unknown
Orbital elements
Apogee altitude
486.089 km
Perigee altitude
483.973 km
Semi-major axis
6,863.168 km
Eccentricity
0.00015
Inclination
42.9975°
RAAN
323.4263°
Arg. of periapsis
74.0013°
True anomaly
286.08383°
Mean anomaly
286.1008°
Eccentric anomaly
286.09232°
Mean motion
3.8173 °/min
Orbital period
94.31 mins
BSTAR
0.0007596
Loading maneuver chart data...
Computing Atmospheric mass density...
Loading historical data...
Loading historical data...
Loading historical data...
Loading historical data...
Loading historical data...
Loading historical data...
Loading historical data...

Documentation

Showing up to 5 results
|